This demonstration page uses our WeatherBlox Daily Observations layout. Learn more.

Left ArrowRight Arrow

34.16533, -84.80231

Hourly Observations for February 14, 2015

Temp ( °F °C ) Dew Point ( °F °C ) Humidity (%) Winds ( mph kmh ) Pressure ( in mb ) Visibility ( mi km ) Precip ( " mm )
12:53 am 00:53 Clear 26 -3.3 15 -9.4 63 63 Calm 30.22 1023 10 16 0.00 0.00
1:53 am 01:53 Clear 25 -3.9 14 -10 63 63 Calm 30.20 1023 10 16 0.00 0.00
2:53 am 02:53 Clear 24 -4.4 16 -8.9 71 71 Calm 30.19 1023 10 16 0.00 0.00
3:53 am 03:53 Clear 24 -4.4 15 -9.4 68 68 Calm 30.17 1022 10 16 0.00 0.00
4:53 am 04:53 Clear 22 -5.6 13 -10.6 68 68 Calm 30.16 1021 10 16 0.00 0.00
5:53 am 05:53 Clear 22 -5.6 14 -10 71 71 Calm 30.15 1021 10 16 0.00 0.00
6:53 am 06:53 Clear 20 -6.7 13 -10.6 74 74 Calm 30.15 1021 10 16 0.00 0.00
7:53 am 07:53 Sunny 21 -6.1 14 -10 74 74 Calm 30.16 1021 10 16 0.00 0.00
8:53 am 08:53 Sunny 29 -1.7 16 -8.9 58 58 Calm 30.16 1021 10 16 0.00 0.00
9:53 am 09:53 Sunny 37 2.8 17 -8.3 44 44 VRB 3 6 30.12 1020 10 16 0.00 0.00
10:53 am 10:53 Sunny 44 6.7 18 -7.8 35 35 VRB 3 6 30.11 1020 10 16 0.00 0.00
11:53 am 11:53 Sunny 50 10 21 -6.1 32 32 Calm 30.08 1019 10 16 0.00 0.00
12:53 pm 12:53 Sunny 52 11.1 23 -5 32 32 VRB 5 7 30.04 1017 10 16 0.00 0.00
1:53 pm 13:53 Sunny 55 12.8 25 -3.9 31 31 VRB 6 9 30.01 1016 10 16 0.00 0.00
2:53 pm 14:53 Sunny 57 13.9 26 -3.3 30 30 VRB 7 11 29.96 1015 10 16 0.00 0.00
3:53 pm 15:53 Sunny 58 14.4 26 -3.3 29 29 undefined N/A 29.95 1014 10 16 0.00 0.00
4:53 pm 16:53 Mostly Cloudy 58 14.4 28 -2.2 32 32 VRB 3 6 29.94 1014 10 16 0.00 0.00
5:53 pm 17:53 Cloudy 57 13.9 27 -2.8 32 32 VRB 3 6 29.94 1014 10 16 0.00 0.00
6:53 pm 18:53 Cloudy 55 12.8 29 -1.7 37 37 Calm 29.96 1015 10 16 0.00 0.00
7:53 pm 19:53 Cloudy 55 12.8 28 -2.2 35 35 VRB 6 9 29.99 1016 10 16 0.00 0.00
8:53 pm 20:53 Cloudy 54 12.2 27 -2.8 35 35 NNW 8 13 30.02 1017 10 16 0.00 0.00
9:53 pm 21:53 Mostly Cloudy 51 10.6 27 -2.8 39 39 VRB 6 9 30.07 1018 10 16 0.00 0.00
10:53 pm 22:53 Mostly Cloudy 47 8.3 26 -3.3 44 44 NNW 9 15 30.09 1019 10 16 0.00 0.00
11:53 pm 23:53 Mostly Cloudy 42 5.6 24 -4.4 49 49 NNW 10 17 30.12 1020 10 16 0.00 0.00

Powered by AerisWeather